[[{"header":{"parameterUnit":"m.s-1","parameterCategory":1,"la1":30.2991,"la2":30.254,"lo1":-89.0895,"lo2":-89.0444,"dy":0.0017,"dx":0.0017,"nx":28,"ny":28,"refTime":"2024-11-30T03:00:00:Z","depth":0,"parameterNumber":2,"parameterNumberName":"U-component_of_WINDS"},"data":[0,0,0,0,0,0,0,0,0,0,0,0,0,0,0,0,0,0,0,0,0,0,0,0,0,0,0,0,0,0,0,0,0,0,0,0,0,0,0,0,0,0,0,0,0,0,0,0,0,0,0,0,0,0,0,0,0,0,-1.8491,-1.8492,0,-1.8593,-1.8594,-1.8595,-1.862,-1.8619,-1.8618,-1.8618,-1.872,-1.8723,-1.8727,0,0,0,0,0,0,0,0,0,0,0,0,0,-1.8318,-1.8321,-1.8491,-1.8492,-1.8494,-1.8592,-1.8594,-1.8595,-1.862,-1.8619,-1.8618,-1.8618,-1.8719,-1.8723,-1.8727,0,0,0,0,0,0,0,0,0,0,0,0,0,-1.8403,-1.8322,-1.8491,-1.8518,-1.8521,-1.8592,-1.8594,-1.8596,-1.862,-1.8619,-1.8618,-1.8617,-1.8718,-1.8723,-1.8728,-1.8778,0,0,-1.8743,-1.8745,0,0,0,0,0,0,0,0,-1.8399,-1.841,-1.8513,-1.8516,-1.852,-1.8593,-1.857,-1.8657,-1.862,-1.8583,-1.8618,-1.8617,-1.8678,-1.8687,-1.8708,-1.8783,-1.8787,-1.8743,-1.8746,-1.8748,-1.875,0,0,0,0,0,0,0,-1.8393,-1.8406,-1.8531,-1.8514,-1.8519,-1.8525,-1.8536,-1.8587,-1.8635,-1.8586,-1.8588,-1.86,-1.868,-1.8703,-1.871,-1.8789,-1.8743,-1.8748,-1.8751,-1.8753,-1.891,-1.8911,0,0,0,0,0,0,-1.8382,-1.84,-1.8528,-1.8534,-1.8456,-1.8529,-1.8541,-1.857,-1.8634,-1.8643,-1.86,-1.86,-1.8695,-1.8704,-1.8714,-1.8777,-1.8748,-1.8753,-1.8756,-1.8909,-1.891,-1.8912,0,0,0,0,0,0,-1.8378,-1.8393,-1.8524,-1.8468,-1.8485,-1.8533,-1.8565,-1.8573,-1.8595,-1.8645,-1.8654,-1.8615,-1.8694,-1.8707,-1.8762,-1.8781,-1.8755,-1.876,-1.8908,-1.8909,-1.8911,-1.8903,0,0,0,0,0,0,-1.8373,-1.8392,-1.8412,-1.8468,-1.8488,-1.857,-1.8567,-1.8575,-1.8604,-1.8605,-1.8661,-1.8669,-1.8695,-1.8754,-1.8767,-1.8787,-1.8764,-1.8906,-1.8908,-1.8911,-1.8901,-1.8904,-1.8906,0,0,0,0,0,-1.8367,-1.8405,-1.8413,-1.8428,-1.8514,-1.8571,-1.8583,-1.8612,-1.8606,-1.8626,-1.8658,-1.8667,-1.8777,-1.876,-1.8774,-1.8796,-1.8905,-1.8908,-1.891,-1.89,-1.8903,-1.8906,0,0,0,0,0,0,-1.8349,-1.8413,-1.8422,-1.848,-1.852,-1.8576,-1.8602,-1.8614,-1.8656,-1.8655,-1.8689,-1.8702,-1.8754,-1.8781,-1.8761,-1.8848,-1.8841,-1.8847,-1.8828,-1.8832,-1.8834,-1.8826,-1.8768,0,0,0,0,0,-1.8352,-1.8394,-1.8447,-1.8493,-1.8513,-1.8554,-1.858,-1.8599,-1.8642,-1.8659,-1.8695,-1.8736,-1.8779,-1.8807,-1.885,-1.8906,-1.8918,-1.8928,-1.893,-1.8932,-1.8936,-1.8967,-1.8972,-1.892,-1.892,-1.892,0,0,-1.8358,-1.8398,-1.8422,-1.849,-1.8524,-1.8566,-1.8568,-1.8612,-1.8644,-1.8665,-1.8719,-1.8747,-1.8795,-1.8851,-1.8877,-1.8875,-1.8953,-1.8936,-1.8936,-1.894,-1.897,-1.8975,-1.8979,-1.8922,-1.8922,-1.8922,0,0,-1.839,-1.8425,-1.8466,-1.85,-1.8551,-1.8578,-1.8588,-1.8642,-1.8662,-1.8717,-1.8734,-1.8771,-1.8846,-1.8879,-1.8906,-1.8951,-1.8961,-1.8964,-1.8976,-1.9005,-1.9009,-1.9013,-1.9028,-1.9033,-1.8969,-1.8969,-1.8969,0,-1.839,-1.8455,-1.8486,-1.853,-1.8559,-1.8581,-1.8623,-1.8654,-1.8716,-1.8736,-1.8733,-1.8827,-1.8861,-1.8924,-1.8935,-1.8956,-1.8968,-1.8957,-1.9006,-1.901,-1.9014,-1.9029,-1.9034,-1.8969,-1.8969,-1.8969,-1.8969,0,-1.8452,-1.8497,-1.8524,-1.8584,-1.8616,-1.8659,-1.8696,-1.8725,-1.8742,-1.8769,-1.8824,-1.8866,-1.8918,-1.8934,-1.8951,-1.9,-1.8997,-1.9,-1.8993,-1.9018,-1.9032,-1.9038,-1.8968,-1.8968,-1.8968,-1.8968,0,0,-1.8474,-1.8551,-1.8561,-1.8588,-1.8646,-1.8681,-1.8724,-1.8775,-1.8799,-1.8841,-1.8878,-1.8941,-1.8944,-1.8974,-1.8995,-1.9021,-1.9053,-1.9021,-1.9022,-1.9024,-1.9108,-1.9104,-1.911,-1.9061,-1.9062,-1.9063,-1.9104,0,-1.8512,-1.8591,-1.8621,-1.8685,-1.8725,-1.8748,-1.8786,-1.8825,-1.8852,-1.8891,-1.8921,-1.8964,-1.8966,-1.8984,-1.9011,-1.9043,-1.907,-1.9041,-1.9094,-1.9095,-1.9079,-1.9118,-1.9114,-1.9151,-1.911,-1.9111,-1.9111,0,-1.8567,-1.861,-1.8678,-1.8731,-1.8749,-1.8782,-1.8831,-1.8868,-1.8913,-1.8931,-1.8965,-1.8984,-1.903,-1.9022,-1.9085,-1.9065,-1.9088,-1.9108,-1.911,-1.9114,-1.9103,-1.9122,-1.9163,-1.9168,-1.9121,-1.912,-1.9119,0,-1.8574,-1.865,-1.87,-1.8723,-1.8786,-1.8809,-1.8836,-1.888,-1.8909,-1.8952,-1.897,-1.9018,-1.9044,-1.908,-1.9111,-1.9102,-1.9171,-1.9166,-1.9186,-1.9185,-1.9198,-1.9197,-1.9242,-1.9216,-1.9216,-1.9216,-1.9216,0,-1.8613,-1.8653,-1.8704,-1.8734,-1.878,-1.8814,-1.8859,-1.8887,-1.8927,-1.8963,-1.8986,-1.902,-1.906,-1.9098,-1.9123,-1.9171,-1.9183,-1.9198,-1.9204,-1.9195,-1.9193,-1.921,-1.9207,-1.9218,-1.9217,-1.9217,-1.9217,0,-1.8628,-1.8664,-1.872,-1.8775,-1.879,-1.8821,-1.8869,-1.8899,-1.8928,-1.8973,-1.8986,-1.903,-1.9077,-1.9112,-1.9173,-1.919,-1.924,-1.9247,-1.9225,-1.9228,-1.9246,-1.9243,-1.9302,-1.9311,-1.9281,-1.9281,-1.9281,0,-1.8649,-1.8681,-1.874,-1.8766,-1.8793,-1.8835,-1.8864,-1.8899,-1.8929,-1.8983,-1.9007,-1.9055,-1.9095,-1.9169,-1.9206,-1.9253,-1.926,-1.9278,-1.9267,-1.9257,-1.9259,-1.9256,-1.9259,-1.9278,-1.9279,-1.9279,-1.9279,0,-1.8682,-1.8699,-1.874,-1.8788,-1.8822,-1.8862,-1.8902,-1.8922,-1.8964,-1.8996,-1.9044,-1.9075,-1.9137,-1.9185,-1.9235,-1.9263,-1.9278,-1.9282,-1.9289,-1.928,-1.9265,-1.9272,-1.9227,-1.928,-1.928,-1.928,-1.928,-1.928,-1.8701,-1.8729,-1.8775,-1.8821,-1.8854,-1.8891,-1.8922,-1.8955,-1.8995,-1.9049,-1.9067,-1.9116,-1.9161,-1.923,-1.9259,-1.9298,-1.9298,-1.9308,-1.9311,-1.9312,-1.9311,-1.926,-1.9307,-1.9307,-1.9307,-1.9307,-1.9307,0,-1.8734,-1.8765,-1.8806,-1.8861,-1.8897,-1.8908,-1.8953,-1.8982,-1.9025,-1.9066,-1.9105,-1.916,-1.9207,-1.9248,-1.9296,-1.9319,-1.9327,-1.9331,-1.9329,-1.9335,-1.9309,-1.9297,-1.9323,-1.9323,-1.9323,-1.9323,-1.9323,-1.9323,-1.8755,-1.8804,-1.8826,-1.8892,-1.8923,-1.8971,-1.8995,-1.9029,-1.9062,-1.9122,-1.9161,-1.9188,-1.9229,-1.928,-1.9323,-1.9334,-1.935,-1.9352,-1.9364,-1.9339,-1.9336,-1.9334,-1.9324,-1.9355,-1.9355,-1.9387,-1.9387,-1.9387]},{"header":{"parameterUnit":"m.s-1","parameterCategory":1,"la1":30.2991,"la2":30.254,"lo1":-89.0895,"lo2":-89.0444,"dy":0.0017,"dx":0.0017,"nx":28,"ny":28,"refTime":"2024-11-30T03:00:00:Z","depth":0,"parameterNumber":3,"parameterNumberName":"V-component_of_WINDS"},"data":[0,0,0,0,0,0,0,0,0,0,0,0,0,0,0,0,0,0,0,0,0,0,0,0,0,0,0,0,0,0,0,0,0,0,0,0,0,0,0,0,0,0,0,0,0,0,0,0,0,0,0,0,0,0,0,0,0,0,-0.0912,-0.0912,0,-0.0907,-0.0907,-0.0907,-0.0967,-0.0969,-0.0971,-0.0972,-0.0967,-0.0965,-0.0964,0,0,0,0,0,0,0,0,0,0,0,0,0,-0.0972,-0.0971,-0.0912,-0.0911,-0.0911,-0.0907,-0.0907,-0.0907,-0.0967,-0.0969,-0.0971,-0.0973,-0.0968,-0.0966,-0.0964,0,0,0,0,0,0,0,0,0,0,0,0,0,-0.0954,-0.097,-0.0912,-0.0941,-0.0943,-0.0907,-0.0907,-0.0907,-0.0967,-0.0969,-0.0972,-0.0974,-0.0968,-0.0966,-0.0963,-0.0898,0,0,-0.0956,-0.0955,0,0,0,0,0,0,0,0,-0.0955,-0.0952,-0.0937,-0.0939,-0.0942,-0.094,-0.0927,-0.0904,-0.0966,-0.0958,-0.0972,-0.0975,-0.0956,-0.0955,-0.0948,-0.0898,-0.0898,-0.0955,-0.0954,-0.0953,-0.0952,0,0,0,0,0,0,0,-0.0956,-0.0953,-0.091,-0.0936,-0.0939,-0.0954,-0.0955,-0.0923,-0.0943,-0.0959,-0.0963,-0.0962,-0.0958,-0.0951,-0.0949,-0.0898,-0.0955,-0.0953,-0.0952,-0.0951,-0.0795,-0.0793,0,0,0,0,0,0,-0.0954,-0.0953,-0.091,-0.091,-0.0955,-0.0951,-0.0951,-0.0938,-0.0944,-0.0947,-0.096,-0.0965,-0.0954,-0.0952,-0.0949,-0.0874,-0.0953,-0.095,-0.0949,-0.0798,-0.0795,-0.0792,0,0,0,0,0,0,-0.0955,-0.0949,-0.091,-0.0933,-0.0929,-0.0948,-0.0932,-0.0937,-0.093,-0.0944,-0.0948,-0.0949,-0.0956,-0.0952,-0.0911,-0.0875,-0.0949,-0.0947,-0.0801,-0.0797,-0.0793,-0.0723,0,0,0,0,0,0,-0.0956,-0.0949,-0.0925,-0.0932,-0.0927,-0.0872,-0.093,-0.0935,-0.0925,-0.0932,-0.0935,-0.0938,-0.0957,-0.0914,-0.0908,-0.0872,-0.0945,-0.0804,-0.0799,-0.0794,-0.0729,-0.0717,-0.0707,0,0,0,0,0,-0.0958,-0.0905,-0.0923,-0.0918,-0.0897,-0.087,-0.0867,-0.0891,-0.0922,-0.0898,-0.0907,-0.0938,-0.0879,-0.0909,-0.0903,-0.0866,-0.0807,-0.0801,-0.0795,-0.0733,-0.0719,-0.0708,0,0,0,0,0,0,-0.0893,-0.0906,-0.0927,-0.0874,-0.087,-0.088,-0.085,-0.0875,-0.0862,-0.0869,-0.0899,-0.0899,-0.0852,-0.0855,-0.0888,-0.0804,-0.0849,-0.0841,-0.0804,-0.0791,-0.078,-0.0781,-0.0943,0,0,0,0,0,-0.0872,-0.0849,-0.0862,-0.0814,-0.0811,-0.0831,-0.082,-0.0838,-0.0835,-0.0834,-0.0841,-0.0837,-0.0818,-0.0804,-0.0788,-0.0729,-0.0731,-0.0701,-0.069,-0.0681,-0.0675,-0.0645,-0.0632,-0.0772,-0.0772,-0.0773,0,0,-0.0829,-0.0834,-0.0817,-0.0801,-0.08,-0.0776,-0.0829,-0.08,-0.0782,-0.083,-0.0791,-0.0796,-0.0793,-0.0743,-0.0722,-0.0744,-0.0636,-0.0674,-0.0667,-0.0665,-0.0637,-0.0624,-0.0612,-0.0768,-0.0769,-0.077,0,0,-0.0739,-0.074,-0.07,-0.0699,-0.0697,-0.0711,-0.0701,-0.0707,-0.0712,-0.0674,-0.0709,-0.0688,-0.0655,-0.0652,-0.0646,-0.0555,-0.0583,-0.0549,-0.0493,-0.0464,-0.0452,-0.0443,-0.0411,-0.0399,-0.0542,-0.0542,-0.0542,0,-0.0686,-0.065,-0.0677,-0.0646,-0.0638,-0.0681,-0.0641,-0.0638,-0.0631,-0.0625,-0.065,-0.0609,-0.0611,-0.0561,-0.0539,-0.0532,-0.0523,-0.0548,-0.0452,-0.0442,-0.0434,-0.0404,-0.0392,-0.0538,-0.0538,-0.0539,-0.0539,0,-0.0585,-0.056,-0.0528,-0.0521,-0.051,-0.0474,-0.0496,-0.0481,-0.0501,-0.0512,-0.0473,-0.0476,-0.0461,-0.045,-0.0469,-0.0403,-0.0417,-0.0447,-0.0492,-0.0416,-0.0388,-0.0377,-0.0532,-0.0533,-0.0534,-0.0535,0,0,-0.0453,-0.0461,-0.0449,-0.0447,-0.0449,-0.043,-0.0397,-0.0383,-0.037,-0.0363,-0.0337,-0.0308,-0.0335,-0.0328,-0.0347,-0.0321,-0.025,-0.0354,-0.0355,-0.0335,-0.0178,-0.0156,-0.0142,-0.0268,-0.0266,-0.0265,-0.0179,0,-0.0365,-0.031,-0.0333,-0.0276,-0.0253,-0.0293,-0.0265,-0.0263,-0.0272,-0.0254,-0.0265,-0.0244,-0.0281,-0.0278,-0.0254,-0.0264,-0.0219,-0.027,-0.0244,-0.0243,-0.0244,-0.0128,-0.0105,-0.0023,-0.0168,-0.0166,-0.0165,0,-0.0255,-0.0245,-0.0185,-0.0192,-0.0184,-0.0157,-0.0147,-0.0129,-0.0128,-0.0137,-0.0129,-0.0154,-0.0123,-0.0168,-0.0125,-0.0159,-0.015,-0.0153,-0.0151,-0.0149,-0.0199,-0.0124,0.0002,0.0014,-0.0148,-0.0149,-0.015,0,-0.0165,-0.0137,-0.0098,-0.0094,-0.0101,-0.0082,-0.0084,-0.0085,-0.0075,-0.0066,-0.006,-0.0046,-0.0039,-0.0028,-0.0049,-0.008,-0.0003,-0.005,-0.001,-0.0009,0.0008,0.0007,0.0137,0.0015,0.0015,0.0014,0.0014,0,-0.0065,-0.0027,-0.0057,-0.0033,0.0008,-0.002,0.0022,0.0016,0.0015,0.0037,0.0003,0.0025,-0.0004,0.0015,-0.0001,0.0036,0.004,0.0034,0.0029,0.0036,0.0037,0.0042,0.0036,0.0018,0.0017,0.0016,0.0016,0,0.0043,0.0024,0.0064,0.0054,0.0052,0.0083,0.0074,0.0096,0.0084,0.0112,0.0117,0.0099,0.0119,0.0099,0.0119,0.0108,0.0158,0.0145,0.0157,0.0154,0.0195,0.0191,0.0332,0.0348,0.0216,0.0218,0.0219,0,0.0108,0.0136,0.0129,0.0141,0.0141,0.0161,0.017,0.0144,0.0156,0.0158,0.018,0.0197,0.0209,0.0243,0.0232,0.0246,0.0233,0.0281,0.0235,0.0242,0.0233,0.0232,0.0234,0.0291,0.0292,0.0294,0.0295,0,0.0225,0.0214,0.0229,0.0241,0.0253,0.0261,0.0266,0.0278,0.0251,0.0266,0.0285,0.0295,0.0314,0.0331,0.0342,0.034,0.0313,0.0309,0.0319,0.0327,0.0333,0.033,0.0183,0.0306,0.0305,0.0304,0.0304,0.0303,0.0313,0.0336,0.0334,0.0351,0.0352,0.0358,0.0378,0.0368,0.0384,0.0397,0.0381,0.0405,0.0405,0.0416,0.0417,0.0436,0.0415,0.043,0.0434,0.0437,0.0443,0.033,0.0438,0.0437,0.0437,0.0437,0.0436,0,0.0428,0.0424,0.0441,0.0449,0.0463,0.0436,0.044,0.0453,0.0475,0.0477,0.0489,0.0512,0.0528,0.0518,0.0532,0.0548,0.0536,0.0553,0.0551,0.0551,0.0461,0.0451,0.0562,0.0562,0.0562,0.0562,0.0562,0.0562,0.0489,0.0526,0.0515,0.0552,0.0548,0.0571,0.0576,0.0581,0.0582,0.0608,0.0621,0.0614,0.0611,0.0624,0.0638,0.0634,0.0641,0.0662,0.0654,0.057,0.0558,0.0546,0.0536,0.0664,0.0664,0.0742,0.0743,0.0744]}]]